User: anonymous   Login
Location: Unspecified
(0.0000°N, 0.0000°E)
Time: 07:48:49
(UTC+00:00)
Language:

Diapason D-1A - Orbit

View from above orbital plane
View from above orbital plane
View from above satellite
View from above satellite

Ground track
Ground track

The orbit data is extracted from the following two-line orbital elements,

1 02016U 66013A   24113.93293060  .00001803  00000-0  51403-3 0  9996
2 02016  34.0946  52.9457 1174490 199.9232 155.1561 12.62751794640974
Epoch (UTC): 22 April 2024 22:23:25
Eccentricity: 0.1174490
inclination: 34.0946°
perigee height: 497 km
apogee height: 2326 km
right ascension of ascending node: 52.9457°
argument of perigee: 199.9232°
revolutions per day: 12.62751794
mean anomaly at epoch: 155.1561°
orbit number at epoch: 64097

The dashed part of the orbit path shows where the satellite is in the earth's shadow,  

DLR